Wind_Speed
8 8 7 8 9 10 11 12 11 12 13 12 10 9 8 7 7 7 6 6 5 5 5 5 4 4 4 5 5 5 5 5 5 4 4 3 2 2 3 2 1 1 1 0 1 0 1 1 2
9 8 8 9 10 10 11 12 12 12 12 12 11 11 10 9 8 8 7 6 5 5 5 5 5 5 4 4 5 5 5 4 4 4 4 2 2 2 2 2 1 1 1 1 1 2 2 2 2
9 8 9 10 11 12 12 12 12 11 11 11 11 11 10 10 9 8 8 7 6 5 5 5 4 5 5 5 5 4 4 4 4 4 4 3 1 1 2 2 2 2 2 2 2 2 2 2 2
9 9 9 10 11 12 12 12 12 11 11 11 11 10 10 10 9 8 8 7 7 6 6 5 4 4 4 5 5 4 4 4 4 4 3 2 1 1 1 2 2 3 3 3 2 2 2 3 3
8 8 9 9 10 11 11 11 12 12 11 11 11 10 10 10 9 9 8 7 6 6 6 5 4 4 4 4 4 4 4 3 3 3 2 1 1 1 1 2 2 3 3 3 3 2 3 4 4
9 9 9 10 10 10 10 11 11 11 11 11 10 10 10 10 9 8 8 8 7 6 5 5 4 4 4 4 4 3 3 3 3 2 1 1 1 1 1 2 2 2 3 4 4 4 4 4 4
8 8 9 9 10 9 10 11 11 11 10 10 10 9 10 9 9 9 8 8 7 6 5 4 4 4 4 4 4 4 3 2 2 1 1 1 1 1 1 1 1 2 3 4 4 5 5 5 5
7 7 8 9 10 10 10 11 10 10 9 9 9 8 8 9 9 9 8 8 7 6 6 4 4 4 4 3 3 3 2 2 2 1 1 1 1 1 2 2 2 3 4 4 5 5 5 5 6
5 6 8 9 9 9 9 10 9 9 9 8 8 8 7 7 7 8 8 7 7 6 6 5 4 4 4 3 3 3 2 2 1 1 1 1 1 1 1 2 3 3 3 4 5 5 5 6 6
4 5 7 8 8 8 9 10 9 9 9 9 7 7 6 7 7 7 7 7 7 6 6 5 4 4 4 3 3 3 2 2 1 1 1 1 1 1 1 1 2 3 4 5 5 5 6 6 6
2 4 5 6 7 8 9 9 9 8 9 9 8 6 6 6 6 7 7 7 7 7 7 6 5 4 3 2 2 2 2 2 1 1 1 1 1 1 1 2 3 3 4 5 6 6 6 6 6
2 2 4 5 6 7 8 8 8 8 8 9 8 7 6 6 6 6 7 7 8 7 7 6 6 5 4 3 2 2 2 2 1 1 1 1 2 2 2 3 4 4 5 5 6 6 6 6 6
2 2 3 4 5 7 7 7 7 7 7 7 7 7 7 7 7 6 6 7 8 8 7 7 6 5 4 3 2 2 2 2 1 1 2 2 3 3 3 4 4 5 5 6 6 6 7 7 7
1 1 2 3 4 5 5 6 6 7 6 6 5 6 7 7 7 7 7 7 7 7 7 7 6 5 5 4 2 1 1 2 2 2 2 2 3 3 4 4 5 5 6 6 6 6 7 8 8
2 1 1 2 3 3 3 4 5 5 6 6 6 5 7 7 7 7 7 7 7 7 7 6 6 5 5 4 3 2 2 2 2 3 3 3 3 3 4 5 5 5 6 6 7 7 7 8 8
4 3 2 1 2 2 2 3 3 4 4 5 5 5 6 7 7 7 6 7 7 7 7 7 6 5 5 5 4 4 3 3 3 3 3 4 4 4 5 5 5 6 6 7 6 6 7 8 8
4 4 3 2 2 2 2 2 1 2 3 4 4 5 6 6 6 6 6 6 7 7 7 6 6 6 5 5 5 5 4 4 4 4 4 5 5 5 5 6 6 6 6 6 6 7 7 8 8
5 4 3 3 3 3 3 1 1 1 2 3 3 4 5 5 5 6 6 6 7 6 6 6 6 7 7 7 5 5 5 4 4 4 5 6 6 7 6 6 7 7 6 7 7 7 7 8 8
7 5 5 4 5 5 3 2 2 2 2 2 3 4 5 5 5 5 6 6 7 6 6 6 6 6 7 8 7 5 5 5 5 5 6 6 7 7 7 7 7 7 7 7 7 8 8 8 8
8 7 6 6 7 7 5 5 4 4 3 3 3 4 4 5 5 6 6 7 7 7 7 7 7 6 7 7 7 6 6 6 6 7 7 7 7 8 8 7 7 7 7 7 8 8 8 8 8
9 8 8 8 8 9 8 6 6 5 5 5 5 5 5 5 6 6 7 7 8 8 8 8 7 7 7 8 8 7 7 7 7 8 8 8 8 8 8 8 7 8 8 8 9 9 9 9 10
10 10 10 10 10 10 10 8 7 6 6 6 6 6 6 7 7 7 8 8 8 8 8 9 9 9 9 9 9 8 8 8 8 8 9 9 9 9 9 9 9 9 9 10 10 11 11 11 11
11 12 11 12 12 11 11 10 7 8 7 7 7 7 7 7 7 7 8 8 9 8 8 10 10 9 9 10 10 10 9 9 9 10 10 10 10 10 10 9 9 10 10 10 11 12 12 13 13
14 14 14 14 14 13 12 12 10 9 8 8 7 8 8 7 7 8 9 9 9 9 9 10 11 11 10 11 10 10 11 10 11 11 11 11 11 11 10 10 10 11 12 12 12 12 13 13 13
15 15 15 15 15 14 13 14 12 10 9 9 8 8 9 9 9 10 10 11 11 11 10 10 12 12 12 13 12 12 12 11 11 11 12 12 12 12 12 12 12 13 13 13 14 14 13 13 13
17 17 16 17 17 16 15 15 12 11 11 10 10 10 10 11 11 11 12 12 12 12 11 12 13 13 13 13 12 12 12 11 11 11 12 12 13 13 14 15 14 15 15 15 15 15 14 14 15
18 18 18 19 18 19 18 16 15 13 13 12 12 12 12 13 13 13 13 13 12 12 13 13 14 14 13 13 12 12 12 12 13 13 13 13 12 13 13 14 15 15 15 15 15 15 15 15 16
19 19 19 20 19 19 18 17 15 14 14 14 14 14 14 14 14 14 14 14 14 14 14 15 15 14 14 13 12 13 13 13 14 14 14 13 14 14 14 15 15 16 17 16 17 17 17 17 17
20 20 20 21 21 20 19 17 15 15 15 16 16 15 15 15 15 15 15 15 15 15 15 14 14 14 15 15 14 14 14 15 15 15 15 15 15 14 14 15 16 17 17 17 18 19 19 19 19
21 21 21 22 22 21 20 19 17 17 17 18 17 16 16 17 17 17 17 16 16 16 15 15 16 15 16 16 16 15 16 16 17 17 17 17 17 16 16 16 17 18 18 18 17 18 19 20 20
Wind_Direction
88 91 84 77 73 73 74 73 65 59 56 56 53 53 57 59 57 61 61 60 61 64 69 77 85 87 88 95 93 94 93 92 93 104 112 113 121 131 148 157 154 161 184 282 342 343 310 256 253
87 85 82 81 75 74 72 70 65 60 57 54 53 56 58 56 57 62 64 63 62 69 69 75 80 90 92 97 99 96 94 93 94 98 105 114 140 155 169 170 186 190 193 239 296 271 271 259 244
85 86 85 81 76 72 72 67 61 60 58 56 52 52 54 53 55 59 61 65 65 64 63 65 74 89 92 98 104 105 100 100 99 106 109 113 130 160 160 174 208 226 228 248 258 264 254 248 246
83 84 82 83 77 71 73 67 60 60 60 57 53 51 52 51 52 54 57 64 66 63 61 63 69 82 91 94 101 111 104 96 95 101 114 126 120 131 179 203 227 242 246 252 258 268 255 245 243
87 82 83 86 78 73 72 66 62 58 58 56 54 52 54 54 53 52 56 61 65 64 62 67 72 80 84 91 103 102 97 95 98 105 112 127 133 145 219 241 256 249 247 250 254 257 253 256 255
79 80 81 82 78 73 70 68 64 57 56 56 54 52 54 55 51 51 57 58 61 61 60 68 77 84 85 86 91 108 104 101 99 102 121 142 148 203 242 263 280 264 255 259 260 261 258 253 254
79 83 78 76 74 73 70 65 59 54 52 54 52 48 48 52 48 44 52 55 60 61 60 65 81 91 95 93 96 107 108 95 91 95 115 147 170 230 235 273 300 283 264 259 262 262 262 256 252
82 79 74 72 66 67 68 60 55 56 48 47 47 43 43 49 49 46 51 51 56 57 57 64 81 90 100 104 112 116 96 81 74 63 120 139 165 202 226 244 265 279 275 269 266 270 266 258 256
86 72 67 67 64 63 63 58 55 53 49 47 45 39 38 43 45 43 43 44 46 50 53 62 76 96 105 107 109 101 88 78 72 55 130 146 154 167 241 252 256 267 271 272 271 273 272 263 260
84 64 57 60 65 64 60 55 57 56 51 47 45 38 33 37 37 34 36 42 43 48 59 68 78 89 101 101 95 89 74 71 84 100 109 144 184 230 297 298 265 266 270 273 273 270 271 268 263
87 56 49 54 62 64 58 53 51 51 49 50 44 35 35 36 38 39 39 41 46 49 54 61 68 70 83 88 80 83 72 66 76 112 132 260 275 265 276 294 288 279 273 273 272 271 271 263 263
90 63 56 48 52 57 55 50 46 45 47 51 47 42 39 33 31 36 35 35 38 41 43 47 51 57 62 62 61 58 55 52 62 70 338 301 293 283 283 287 284 286 282 277 271 268 265 257 262
94 63 58 47 47 53 51 43 37 40 43 49 46 43 39 33 30 34 35 28 31 36 39 41 43 48 53 55 52 35 25 30 17 349 327 313 296 287 289 284 286 289 291 288 280 275 269 267 269
136 55 52 51 50 46 43 37 32 43 45 44 40 38 36 30 34 39 41 42 41 41 39 42 42 43 46 44 39 8 355 359 341 328 333 318 301 289 291 288 290 292 293 292 283 276 274 274 275
208 252 19 20 29 31 33 25 29 38 43 39 37 38 38 32 34 37 45 45 39 38 38 40 40 38 32 19 6 330 313 317 316 315 317 315 313 307 293 298 296 294 298 298 290 279 274 276 276
241 256 272 333 7 11 4 19 38 32 43 41 38 37 38 35 30 28 34 34 32 32 33 34 33 25 15 1 345 331 325 315 304 307 311 316 314 309 304 303 298 295 299 298 289 284 279 278 276
241 262 285 293 311 321 335 5 41 33 46 42 32 39 37 30 25 22 21 22 22 24 23 23 18 9 360 350 338 332 330 318 307 307 311 309 306 300 297 297 294 294 297 292 286 286 289 283 280
254 269 279 293 299 298 307 315 294 1 25 21 11 26 29 22 20 18 16 13 10 11 11 7 7 2 1 359 345 335 333 324 316 315 312 306 306 304 297 295 287 285 288 288 282 284 289 286 279
250 261 268 284 284 284 287 280 275 292 333 352 351 5 13 9 13 9 4 357 354 356 353 350 352 351 354 356 353 345 334 320 313 310 308 305 304 304 302 298 288 282 283 282 282 281 284 285 282
251 260 272 275 269 274 276 265 265 275 300 310 324 337 355 357 352 357 353 346 344 343 343 341 341 338 343 346 343 332 327 319 308 308 308 302 297 297 298 298 290 286 287 286 284 285 284 285 284
252 260 268 271 266 270 270 270 270 270 279 289 299 312 322 327 329 334 337 329 329 327 326 327 329 329 330 333 333 323 313 313 311 309 308 302 297 296 290 286 286 289 289 292 293 291 289 286 284
249 254 261 267 267 267 270 277 278 267 270 282 294 300 308 312 315 317 321 323 323 319 318 314 315 316 316 317 321 318 307 304 304 302 302 298 293 293 288 282 281 283 286 290 296 296 289 282 279
247 250 258 261 264 266 271 278 275 264 267 273 283 289 297 301 304 310 316 320 319 320 318 312 313 309 307 306 306 309 307 300 297 296 293 290 290 289 285 287 287 288 288 287 291 295 292 287 280
247 254 258 259 262 262 269 277 276 267 271 275 277 285 293 298 304 308 309 315 319 317 314 306 307 308 306 303 299 300 303 302 300 295 288 285 284 281 279 284 289 290 290 288 288 290 292 291 286
249 254 260 261 260 263 266 271 279 277 277 279 278 285 293 299 301 305 306 308 311 312 314 307 304 302 303 302 300 299 300 297 299 298 290 285 283 280 280 280 284 287 290 289 288 288 288 288 287
255 257 260 265 265 266 265 267 273 276 278 281 278 282 288 294 297 299 302 303 306 306 308 308 303 298 298 298 300 302 299 295 297 302 300 292 284 283 283 280 279 281 285 288 287 287 288 286 287
252 256 260 265 267 267 268 271 270 273 276 278 278 279 286 293 296 298 301 302 304 304 303 305 305 303 300 299 303 305 303 301 301 301 296 293 290 288 285 282 281 285 286 289 289 288 288 287 287
250 255 257 262 265 268 270 273 273 276 277 276 275 281 287 291 296 299 302 302 302 303 303 304 303 299 297 299 301 301 299 300 300 298 293 288 286 288 286 278 282 285 286 288 287 285 286 288 287
251 253 256 260 264 267 272 274 279 279 280 282 282 284 287 288 292 296 299 301 301 301 302 303 302 300 297 296 295 296 298 300 299 299 294 288 285 285 284 286 286 286 285 285 285 284 284 284 284
250 255 258 262 265 268 271 276 282 283 284 285 284 282 286 289 290 291 294 297 298 298 298 299 302 299 297 297 296 297 298 299 298 297 291 287 286 287 285 285 286 287 289 289 287 286 284 283 283
Height
5884 5884 5884 5885 5885 5884 5882 5881 5880 5880 5879 5878 5878 5877 5877 5877 5877 5879 5877 5875 5875 5875 5875 5875 5875 5875 5875 5875 5876 5876 5877 5878 5878 5879 5879 5880 5881 5882 5882 5883 5883 5884 5884 5884 5885 5885 5885 5886 5886
5886 5886 5887 5886 5885 5884 5884 5883 5882 5881 5881 5880 5879 5879 5878 5877 5877 5877 5876 5876 5876 5876 5876 5876 5875 5875 5876 5876 5877 5877 5878 5878 5879 5879 5880 5880 5881 5882 5882 5883 5883 5883 5884 5884 5885 5885 5885 5885 5886
5887 5888 5888 5887 5885 5885 5885 5884 5884 5883 5882 5881 5881 5880 5879 5879 5878 5877 5877 5877 5877 5877 5877 5876 5876 5876 5877 5877 5877 5878 5878 5879 5879 5880 5880 5881 5881 5881 5882 5882 5883 5883 5884 5884 5884 5884 5885 5885 5885
5889 5890 5890 5888 5886 5886 5886 5885 5885 5884 5883 5883 5882 5881 5880 5880 5879 5879 5878 5878 5878 5878 5877 5877 5877 5877 5877 5877 5877 5878 5879 5879 5879 5880 5880 5881 5881 5881 5881 5882 5882 5883 5883 5883 5884 5884 5884 5884 5884
5891 5891 5891 5889 5888 5888 5887 5886 5886 5885 5884 5884 5883 5883 5882 5881 5880 5880 5879 5878 5878 5878 5878 5878 5877 5877 5877 5877 5878 5878 5879 5879 5879 5880 5880 5881 5881 5881 5881 5882 5882 5882 5882 5883 5883 5883 5883 5883 5884
5893 5892 5892 5890 5889 5889 5888 5887 5887 5887 5886 5885 5885 5884 5884 5883 5882 5881 5880 5879 5879 5878 5878 5878 5878 5878 5878 5878 5878 5878 5879 5879 5879 5880 5880 5881 5881 5881 5881 5881 5881 5881 5881 5882 5882 5882 5882 5882 5883
5894 5893 5892 5891 5891 5890 5889 5888 5888 5888 5887 5887 5886 5886 5885 5884 5883 5882 5881 5880 5880 5879 5878 5878 5878 5878 5878 5878 5878 5878 5879 5879 5879 5879 5880 5880 5880 5881 5881 5881 5881 5881 5881 5881 5881 5881 5881 5881 5881
5895 5895 5893 5892 5892 5891 5891 5890 5889 5889 5888 5888 5887 5887 5886 5885 5884 5883 5882 5881 5880 5879 5878 5878 5878 5878 5878 5878 5878 5878 5879 5879 5879 5879 5879 5879 5880 5880 5880 5880 5880 5880 5880 5880 5880 5880 5880 5880 5880
5896 5896 5894 5893 5893 5893 5892 5891 5891 5890 5889 5889 5888 5888 5887 5886 5885 5884 5883 5882 5881 5880 5879 5878 5878 5878 5878 5878 5878 5879 5879 5879 5879 5878 5878 5879 5879 5879 5879 5879 5879 5879 5879 5879 5879 5879 5879 5879 5879
5896 5895 5895 5895 5894 5893 5892 5891 5891 5890 5890 5889 5889 5888 5887 5886 5885 5885 5884 5882 5881 5880 5879 5878 5878 5878 5878 5878 5879 5879 5879 5879 5879 5878 5878 5878 5879 5879 5879 5878 5878 5878 5878 5878 5878 5878 5878 5878 5878
5896 5896 5896 5895 5894 5893 5893 5892 5892 5891 5890 5890 5889 5889 5888 5887 5886 5885 5884 5883 5882 5881 5880 5879 5879 5879 5879 5879 5879 5879 5879 5879 5879 5878 5878 5878 5878 5878 5878 5878 5877 5877 5877 5877 5877 5876 5876 5877 5877
5897 5897 5896 5896 5895 5894 5893 5893 5893 5892 5891 5891 5890 5889 5888 5887 5886 5885 5884 5884 5883 5882 5881 5880 5879 5879 5879 5879 5879 5879 5879 5879 5878 5878 5878 5878 5877 5877 5877 5877 5876 5876 5876 5876 5875 5875 5875 5875 5875
5898 5897 5897 5897 5896 5895 5894 5894 5893 5893 5892 5891 5890 5890 5889 5888 5887 5886 5885 5884 5884 5882 5882 5881 5880 5880 5880 5879 5879 5879 5879 5878 5878 5878 5877 5877 5877 5876 5876 5875 5875 5875 5874 5874 5874 5873 5873 5873 5873
5898 5898 5897 5897 5896 5895 5895 5894 5894 5893 5892 5892 5891 5891 5890 5889 5888 5887 5886 5885 5884 5883 5882 5881 5881 5880 5880 5879 5879 5878 5878 5878 5877 5877 5876 5876 5875 5875 5874 5874 5874 5873 5873 5872 5872 5872 5872 5872 5871
5898 5898 5898 5897 5897 5896 5896 5895 5895 5894 5893 5892 5892 5891 5891 5890 5888 5887 5886 5886 5885 5884 5883 5882 5881 5881 5880 5879 5879 5878 5877 5877 5877 5876 5875 5875 5874 5873 5873 5873 5872 5872 5871 5871 5870 5870 5870 5869 5869
5898 5898 5898 5898 5897 5896 5897 5896 5895 5894 5893 5893 5892 5892 5891 5890 5889 5888 5887 5886 5885 5884 5883 5883 5882 5881 5880 5879 5878 5877 5877 5876 5876 5875 5874 5874 5873 5872 5872 5871 5871 5870 5870 5869 5868 5868 5868 5867 5867
5897 5898 5897 5897 5896 5895 5895 5895 5895 5894 5893 5893 5893 5892 5891 5890 5889 5888 5887 5886 5885 5884 5883 5882 5881 5880 5879 5878 5877 5877 5876 5875 5874 5874 5873 5872 5872 5871 5870 5870 5869 5869 5868 5867 5867 5866 5866 5865 5865
5897 5897 5897 5896 5896 5895 5895 5895 5895 5894 5894 5893 5893 5892 5891 5890 5889 5888 5887 5886 5885 5884 5883 5882 5881 5880 5879 5877 5876 5875 5875 5874 5873 5872 5872 5871 5870 5869 5868 5868 5867 5867 5866 5866 5865 5864 5864 5863 5863
5896 5896 5896 5896 5895 5895 5894 5894 5894 5894 5893 5893 5893 5892 5891 5890 5889 5888 5887 5886 5884 5883 5882 5881 5880 5879 5878 5877 5875 5874 5873 5873 5872 5871 5870 5869 5868 5868 5867 5866 5865 5865 5865 5864 5863 5863 5862 5861 5861
5894 5895 5895 5895 5894 5893 5893 5893 5894 5893 5893 5893 5892 5891 5890 5889 5888 5887 5886 5885 5884 5883 5882 5881 5880 5879 5877 5876 5875 5873 5873 5872 5871 5870 5868 5867 5867 5866 5865 5864 5863 5863 5862 5862 5861 5860 5860 5859 5859
5893 5893 5893 5893 5892 5892 5892 5893 5893 5892 5892 5892 5891 5891 5890 5888 5887 5886 5885 5884 5882 5881 5880 5879 5879 5878 5877 5875 5874 5872 5871 5870 5869 5868 5867 5866 5865 5864 5863 5862 5861 5861 5860 5860 5859 5858 5858 5857 5857
5891 5892 5892 5891 5891 5890 5891 5891 5891 5891 5891 5891 5890 5889 5888 5888 5886 5885 5883 5882 5881 5880 5879 5878 5877 5876 5874 5874 5872 5870 5869 5869 5868 5866 5865 5864 5863 5862 5860 5860 5859 5859 5858 5858 5857 5856 5855 5854 5854
5889 5889 5889 5889 5888 5888 5888 5889 5890 5889 5889 5889 5888 5888 5887 5886 5885 5883 5882 5881 5879 5878 5876 5875 5874 5873 5872 5871 5870 5868 5867 5866 5865 5864 5863 5862 5860 5859 5858 5857 5857 5857 5856 5855 5854 5853 5852 5851 5850
5886 5887 5887 5886 5886 5887 5887 5887 5888 5888 5888 5887 5886 5886 5885 5884 5883 5882 5880 5879 5877 5876 5874 5873 5872 5870 5869 5868 5867 5866 5865 5863 5862 5861 5860 5859 5858 5857 5856 5856 5855 5854 5854 5853 5852 5851 5849 5848 5847
5883 5884 5884 5884 5884 5885 5885 5884 5886 5886 5885 5885 5884 5883 5882 5882 5881 5879 5878 5876 5875 5873 5871 5870 5869 5868 5867 5866 5864 5863 5862 5860 5859 5858 5857 5856 5855 5854 5854 5853 5853 5852 5851 5850 5849 5848 5847 5845 5844
5880 5881 5882 5882 5882 5882 5882 5882 5884 5883 5883 5882 5881 5881 5880 5879 5878 5877 5875 5874 5872 5870 5869 5867 5866 5865 5864 5863 5861 5860 5858 5857 5856 5855 5854 5853 5852 5851 5851 5850 5850 5849 5848 5847 5846 5845 5843 5842 5841
5876 5877 5878 5878 5878 5878 5879 5879 5880 5880 5880 5880 5879 5878 5877 5876 5875 5874 5872 5871 5869 5868 5866 5865 5863 5862 5860 5859 5858 5857 5856 5855 5853 5852 5851 5850 5849 5848 5847 5847 5846 5846 5844 5843 5842 5841 5840 5839 5838
5873 5874 5874 5874 5874 5874 5875 5875 5877 5877 5877 5876 5875 5875 5874 5873 5872 5870 5869 5867 5866 5864 5863 5862 5860 5859 5857 5856 5855 5854 5853 5852 5851 5849 5848 5847 5846 5845 5844 5844 5843 5842 5841 5840 5839 5837 5836 5835 5834
5868 5869 5869 5870 5870 5871 5870 5874 5874 5874 5873 5873 5872 5871 5870 5869 5868 5867 5866 5864 5863 5861 5860 5858 5857 5855 5854 5853 5852 5851 5849 5848 5847 5845 5844 5843 5842 5841 5840 5840 5839 5838 5837 5835 5834 5833 5832 5830 5829
5863 5864 5865 5866 5866 5866 5867 5871 5870 5870 5869 5868 5868 5867 5866 5865 5864 5863 5862 5861 5859 5858 5856 5855 5853 5852 5851 5850 5848 5847 5846 5844 5842 5841 5839 5838 5837 5837 5836 5835 5834 5833 5832 5831 5829 5828 5827 5825 5824